Weather History for KGSO - July, 2014

Change the Weather History Date:

Monday, July 14, 2014

  Actual Average Record
Temperature  
Mean Temperature 86 °F 79 °F  
Max Temperature 96 °F 88 °F 102 °F (1954)
Min Temperature 75 °F 69 °F 54 °F (1940)
Degree Days  
Heating Degree Days 0 0  
Month to date heating degree days 0 0  
Since 1 June heating degree days 0 6  
Since 1 July heating degree days 0 0  
Cooling Degree Days 21 14  
Month to date cooling degree days 208 190  
Year to date cooling degree days 762 656  
Since 1 June cooling degree days 565 497  
Growing Degree Days 36 (Base 50)    
Moisture  
Dew Point 67 °F    
Average Humidity 58    
Maximum Humidity 82    
Minimum Humidity 34    
Precipitation  
Precipitation 0.00 in 0.16 in 2.94 in (1944)
Month to date precipitation 0.14 1.90  
Year to date precipitation 20.63 22.33  
Sea Level Pressure  
Sea Level Pressure 29.93 in    
Wind  
Wind Speed 10 mph (SW)    
Max Wind Speed 23 mph    
Max Gust Speed 32 mph    
Visibility 10 miles    
Events      
T = Trace of Precipitation, MM = Missing Value Source: NWS Daily Summary

Daily Weather History Graph

Daily Weather History Graph

Search for Another Location

Airport or City:

Trip Planner

Search our weather history database for the weather conditions in past years. The results will help you decide how hot, cold, wet, or windy it might be!

Date:

Astronomy

Jul. 14, 2014 Rise Set
Actual Time 6:13 AM EDT 8:37 PM EDT
Civil Twilight 5:44 AM EDT 9:06 PM EDT
Nautical Twilight 5:07 AM EDT 9:43 PM EDT
Astronomical Twilight 4:27 AM EDT 10:23 PM EDT
Moon 10:13 PM EDT (7/14) 8:48 AM EDT (7/14)
Length of Visible Light 15h 22m
Length of Day
14h 23m
Waning Gibbous, 93% of the Moon is Illuminated
Jul 14
Waning Gibbous
Jul 18
Last Quarter
Jul 26
New
Aug 3
First Quarter
Aug 10
Full

Hourly Weather History & Observations

Time (EDT) Temp. Heat Index Dew Point Humidity Pressure Visibility Wind Dir Wind Speed Gust Speed Precip Events Conditions
12:54 AM 75.9 °F - 68.0 °F 76% 29.99 in 10.0 mi Calm Calm - N/A   Scattered Clouds
1:54 AM 75.0 °F - 66.0 °F 73% 29.99 in 10.0 mi South 8.1 mph - N/A   Mostly Cloudy
2:54 AM 75.0 °F - 66.0 °F 73% 29.98 in 10.0 mi South 8.1 mph - N/A   Mostly Cloudy
3:54 AM 75.0 °F - 68.0 °F 79% 29.98 in 10.0 mi SSW 8.1 mph - N/A   Mostly Cloudy
4:54 AM 75.0 °F - 69.1 °F 82% 29.97 in 10.0 mi SSW 6.9 mph - N/A   Mostly Cloudy
5:54 AM 75.0 °F - 70.0 °F 84% 29.97 in 10.0 mi SW 8.1 mph - N/A   Mostly Cloudy
6:54 AM 75.0 °F - 70.0 °F 84% 29.98 in 10.0 mi SW 8.1 mph - N/A   Overcast
7:54 AM 75.9 °F - 69.1 °F 79% 29.98 in 10.0 mi SW 9.2 mph - N/A   Mostly Cloudy
8:54 AM 78.1 °F - 69.1 °F 74% 29.98 in 10.0 mi WSW 8.1 mph - N/A   Mostly Cloudy
9:54 AM 82.9 °F 87.0 °F 70.0 °F 65% 29.97 in 10.0 mi WSW 9.2 mph - N/A   Mostly Cloudy
10:54 AM 87.1 °F 92.0 °F 70.0 °F 57% 29.97 in 10.0 mi SW 8.1 mph - N/A   Scattered Clouds
11:54 AM 90.0 °F 93.6 °F 68.0 °F 48% 29.97 in 10.0 mi West 10.4 mph 18.4 mph N/A   Mostly Cloudy
12:54 PM 89.1 °F 92.9 °F 68.0 °F 50% 29.94 in 10.0 mi SSW 6.9 mph - N/A   Mostly Cloudy
1:54 PM 93.0 °F 94.6 °F 64.0 °F 38% 29.92 in 10.0 mi SW 11.5 mph 17.3 mph N/A   Mostly Cloudy
2:54 PM 93.9 °F 97.0 °F 66.0 °F 40% 29.89 in 10.0 mi WSW 13.8 mph 19.6 mph N/A   Mostly Cloudy
3:54 PM 93.2 °F 94.9 °F 64.4 °F 38% 29.90 in 10.0 mi SW 11.5 mph 18.4 mph N/A   Mostly Cloudy
4:54 PM 95.0 °F 96.0 °F 63.0 °F 34% 29.85 in 10.0 mi WSW 12.7 mph - N/A   Scattered Clouds
5:54 PM 93.2 °F 94.1 °F 62.6 °F 36% 29.89 in 10.0 mi SW 12.7 mph - N/A   Mostly Cloudy
6:54 PM 88.0 °F 90.3 °F 66.0 °F 48% 29.86 in 10.0 mi WSW 23.0 mph 32.2 mph N/A   Mostly Cloudy
7:54 PM 87.1 °F 89.2 °F 66.0 °F 49% 29.86 in 10.0 mi WSW 8.1 mph - N/A   Mostly Cloudy
8:54 PM 84.0 °F 86.3 °F 66.0 °F 55% 29.86 in 10.0 mi SW 10.4 mph - N/A   Partly Cloudy
9:54 PM 82.9 °F 85.4 °F 66.9 °F 58% 29.88 in 10.0 mi SSW 6.9 mph - N/A   Mostly Cloudy
10:54 PM 81.0 °F 83.8 °F 68.0 °F 65% 29.87 in 10.0 mi South 8.1 mph - N/A   Clear
11:54 PM 80.1 °F 82.7 °F 68.0 °F 67% 29.86 in 10.0 mi South 9.2 mph - N/A   Clear